Flag for Egypt Weather past 2 weeks in Al Jizah, Egypt

Now
61 °F

Clear.


Feels Like: 61 °F
Forecast: 49 / 67 °F
Wind: No wind

Location: Cairo Airport

Current Time: Dec 26, 2014 at 7:18:58 PM

Latest Report: Dec 26, 2014 at 7:00 PM


Visibility: 10 mi

Pressure: 30.04 "Hg

Humidity: 63%

Dew point: 48 °F

Location of Al JizahLocation

Historic Weather in Al Jizah — Graph

°F

Al Jizah temperature yesterday

Maximum temperature yesterday: 68 °F (at 2:00 PM)
Minimum temperature yesterday: 48 °F (at 7:00 AM)
Average temperature yesterday: 58 °F

Past Weeks' High & Low Weather Summary

 TemperatureHumidityPressure
High72 °F (Dec 17, 2:30 PM)100% (Dec 15, 4:30 AM)30.30 "Hg (Dec 15, 4:30 AM)
Low48 °F (Dec 25, 7:00 AM)20% (Dec 12, 3:00 PM)29.89 "Hg (Dec 12, 3:00 AM)
Average61 °F61%30.13 "Hg
* Reported Dec 11 6:00 PM — Dec 26 6:00 PM, Al Jizah, Weather by CustomWeather, © 2014

Note: Actual official high and low records may vary slightly from our data, if they occured in-between our weather recording intervals... More about our weather records

Advertising

Al Jizah weather history for previous 24 hours

 ConditionsComfort  
Time TempWeatherWind HumidityBarometerVisibility
6:00 PM
Dec 26
64 °FClear.3 mph60%30.04 "Hg10 mi
5:30 PM66 °FClear.6 mph46%30.01 "Hg10 mi
5:00 PM66 °FSunny.6 mph49%30.01 "Hg10 mi
4:30 PM66 °FSunny.5 mph49%30.01 "Hg10 mi
4:00 PM68 °FSunny.3 mph43%30.01 "Hg10 mi
3:30 PM68 °FClear.2 mph49%30.01 "Hg4 mi
3:00 PM68 °FClear.2 mph49%30.01 "Hg4 mi
2:30 PM68 °FClear.5 mph46%30.01 "Hg4 mi
2:00 PM66 °FClear.1 mph46%30.01 "Hg4 mi
1:30 PM66 °FHaze.No wind49%30.01 "Hg2 mi
12:30 PM64 °FHaze.2 mph68%30.01 "Hg2 mi
12:00 PM64 °FFog.No wind73%30.04 "Hg1 mi
11:30 AM64 °FFog.No wind78%30.04 "Hg1 mi
11:00 AM64 °FFog.No wind94%30.07 "Hg1 mi
10:30 AM61 °FFog.No wind100%30.07 "Hg1 mi
10:00 AM59 °FFog.No wind100%30.09 "Hg1 mi
9:30 AM55 °FFog.No wind100%30.09 "Hg1 mi
9:00 AM54 °FFog.No wind100%30.07 "Hg0 mi
8:30 AM52 °FFog.No wind100%30.09 "Hg0 mi
8:00 AM52 °FFog.No wind100%30.09 "Hg1 mi
7:30 AM52 °FFog.No wind100%30.07 "Hg1 mi
7:00 AM52 °FFog.No wind100%30.07 "Hg1 mi
6:30 AM54 °FFog.No wind100%30.07 "Hg1 mi
6:00 AM54 °FFog.No wind100%30.07 "Hg1 mi
5:30 AM52 °FFog.No wind100%30.07 "Hg2 mi
5:00 AM54 °FFog.No wind94%30.04 "Hg2 mi
4:30 AM54 °FFog.No wind94%30.07 "Hg2 mi
4:00 AM54 °FFog.No wind94%30.07 "Hg2 mi
3:30 AM54 °FFog.No wind94%30.07 "Hg2 mi
3:00 AM54 °FFog.No wind88%30.07 "Hg2 mi
2:30 AM54 °FFog.No wind88%30.07 "Hg2 mi
2:00 AM54 °FFog.No wind88%30.09 "Hg2 mi
1:30 AM54 °FFog.No wind88%30.07 "Hg2 mi
1:00 AM54 °FClear.No wind94%30.07 "Hg4 mi
12:30 AM54 °FClear.No wind88%30.09 "Hg4 mi
12:00 AM54 °FClear.No wind88%30.09 "Hg4 mi
11:30 PM
Dec 25
55 °FClear.No wind88%30.09 "Hg4 mi
11:00 PM55 °FClear.No wind88%30.09 "Hg4 mi
10:30 PM57 °FClear.No wind77%30.09 "Hg4 mi
10:00 PM57 °FClear.No wind77%30.09 "Hg4 mi
9:30 PM57 °FClear.No wind77%30.12 "Hg4 mi
9:00 PM57 °FClear.No wind77%30.12 "Hg10 mi
8:30 PM61 °FClear.5 mph72%30.12 "Hg10 mi
8:00 PM61 °FClear.5 mph72%30.12 "Hg10 mi
7:30 PM63 °FPassing clouds.6 mph68%30.12 "HgN/A
7:00 PM63 °FPassing clouds.6 mph68%30.12 "HgN/A
Weather by CustomWeather, © 2014

See weather overviewHow to use our weather pages